Home > Weather > Glendale > Past weeks

Flag for U.S.A. Weather for the Past 2 Weeks in Glendale, California, U.S.A.

Now
69 °F

Clear.


Feels Like: 69 °F
Forecast: 59 / 83 °F
Wind: 5 mph from Northwest

Location: Bob Hope Airport

Current Time: Feb 11, 2016 at 8:31:11 PM

Latest Report: Feb 11, 2016 at 7:53 PM


Visibility: 10 mi

Pressure: 30.07 "Hg

Humidity: 29%

Dew point: 35 °F

Location of GlendaleLocation

Historic Weather in Glendale — Graph

°F

Glendale Temperature Yesterday

Maximum temperature yesterday: 86 °F (at 1:53 PM)
Minimum temperature yesterday: 54 °F (at 6:53 AM)
Average temperature yesterday: 70 °F

High & Low Weather Summary for the Past Weeks

 TemperatureHumidityPressure
High87 °F (Feb 9, 2:53 PM)94% (Jan 31, 7:59 AM)30.34 "Hg (Jan 31, 7:59 AM)
Low39 °F (Feb 2, 5:53 AM)7% (Feb 7, 2:53 PM)29.54 "Hg (Jan 31, 1:53 PM)
Average60 °F38%30.09 "Hg
* Reported Jan 27 6:53 PM — Feb 11 6:53 PM, Glendale, Weather by CustomWeather, © 2016

Note: Actual official high and low records may vary slightly from our data, if they occured in-between our weather recording intervals... More about our weather records

Advertising

Glendale Weather History for the Previous 24 Hours

 ConditionsComfort  
Time TempWeatherWind HumidityBarometerVisibility
6:53 PM
Thu, Feb 11
72 °FClear.No wind29%30.07 "Hg10 mi
5:53 PM76 °FClear.7 mph24%30.06 "Hg10 mi
4:53 PM81 °FSunny.6 mph19%30.03 "Hg10 mi
3:53 PM85 °FSunny.8 mph14%30.01 "Hg10 mi
2:53 PM87 °FSunny.No wind10%30.01 "Hg10 mi
1:53 PM85 °FSunny.No wind10%30.02 "Hg10 mi
12:53 PM84 °FSunny.No wind11%30.04 "Hg10 mi
11:53 AM81 °FSunny.No wind13%30.07 "Hg10 mi
10:53 AM80 °FSunny.No wind18%30.10 "Hg10 mi
9:53 AM73 °FSunny.No wind24%30.10 "Hg10 mi
8:53 AM67 °FSunny.No wind29%30.09 "Hg10 mi
7:53 AM58 °FSunny.No wind41%30.08 "Hg10 mi
6:53 AM52 °FSunny.No wind45%30.07 "Hg10 mi
5:53 AM55 °FClear.No wind39%30.06 "Hg10 mi
4:53 AM55 °FClear.No wind44%30.05 "Hg10 mi
3:53 AM56 °FClear.No wind39%30.05 "Hg10 mi
2:53 AM57 °FClear.No wind39%30.06 "Hg10 mi
1:53 AM60 °FClear.No wind35%30.07 "Hg10 mi
12:53 AM63 °FClear.3 mph29%30.07 "Hg10 mi
11:53 PM
Wed, Feb 10
61 °FClear.5 mph35%30.07 "Hg10 mi
10:53 PM64 °FClear.No wind32%30.08 "Hg10 mi
9:53 PM67 °FClear.No wind27%30.07 "Hg10 mi
8:53 PM68 °FClear.5 mph27%30.07 "Hg10 mi
Weather by CustomWeather, © 2016

See weather overviewHow to use our weather pages